Location: Newark
(7.1028°S, 35.3258°W)
Time: 08:56:46
(UTC+00:00)

Vanguard 3 - Pass Details

Date: 26 February 2020
Orbit: 508 x 3263 km, 33.4° (Epoch: 08 April)

Event Time Altitude Azimuth Distance (km) Brightness Sun altitude
Rises 06:50:53 0° 247° (WSW) 3,988 - -24.1°
Reaches altitude 10° 06:54:28 10° 256° (WSW) 2,615 - -23.2°
Maximum altitude 06:59:35 32° 318° (NW) 1,149 - -22.0°
Exits shadow 07:00:58 26° 353° (N) 1,221 7.9 -21.7°
Drops below altitude 10° 07:03:14 10° 23° (NNE) 1,836 9.1 -21.1°
Sets 07:05:20 0° 35° (NE) 2,630 10.1 -20.6°
